Weather History for Lincoln, NE

Change the Weather History Date:

Monday, July 9, 2012

  Actual Average Record
Temperature  
Mean Temperature 80 °F 78 °F  
Max Temperature 90 °F 89 °F 104 °F (1930)
Min Temperature 69 °F 66 °F 49 °F (1895)
Degree Days  
Heating Degree Days 0 0  
Month to date heating degree days 0 0  
Since 1 June heating degree days 11 16  
Since 1 July heating degree days 0 0  
Cooling Degree Days 15 13  
Month to date cooling degree days 164 110  
Year to date cooling degree days 677 431  
Since 1 June cooling degree days 486 352  
Growing Degree Days 30 (Base 50)    
Moisture  
Dew Point 61 °F    
Average Humidity 56    
Maximum Humidity 73    
Minimum Humidity 38    
Precipitation  
Precipitation 0.00 in 0.10 in 2.14 in (1982)
Month to date precipitation 0.00 1.07  
Year to date precipitation 13.21 15.76  
Snow  
Snow 0.00 in 0.00 in - ()
Month to date snowfall 0.0 0.0  
Since 1 July snowfall 0.0 0.0  
Snow Depth 0.00 in    
Sea Level Pressure  
Sea Level Pressure 30.10 in    
Wind  
Wind Speed 7 mph (NE)    
Max Wind Speed 17 mph    
Max Gust Speed 26 mph    
Visibility 9 miles    
Events      
T = Trace of Precipitation, MM = Missing Value Source: NWS Daily Summary

Daily Weather History Graph

Daily Weather History Graph

Search for Another Location

Airport:

Trip Planner

Search our weather history database for the weather conditions in past years. The results will help you decide how hot, cold, wet, or windy it might be!

Date:

Astronomy

Jul. 09, 2012 Rise Set
Actual Time 6:04 AM CDT 9:00 PM CDT
Civil Twilight 5:31 AM CDT 9:32 PM CDT
Nautical Twilight 4:49 AM CDT 10:14 PM CDT
Astronomical Twilight 4:01 AM CDT 11:02 PM CDT
Moon No Moon Rise 12:35 PM CDT (7/9)
Length of Visible Light 16h 01m
Length of Day
14h 55m
Waning Gibbous, 63% of the Moon is Illuminated
Jul 9
Waning Gibbous
Jul 10
Last Quarter
Jul 18
New
Jul 26
First Quarter
Aug 1
Full

Hourly Weather History & Observations

Time (CDT) Temp. Heat Index Dew Point Humidity Pressure Visibility Wind Dir Wind Speed Gust Speed Precip Events Conditions
12:54 AM 75.0 °F - 63.0 °F 66% 30.11 in 10.0 mi NE 6.9 mph - N/A   Overcast
1:54 AM 73.9 °F - 61.0 °F 64% 30.11 in 9.0 mi NE 8.1 mph - N/A   Overcast
2:54 AM 73.9 °F - 61.0 °F 64% 30.10 in 9.0 mi NE 8.1 mph - N/A   Overcast
3:54 AM 72.0 °F - 61.0 °F 68% 30.11 in 9.0 mi North 6.9 mph - N/A   Overcast
4:54 AM 71.1 °F - 61.0 °F 70% 30.12 in 9.0 mi NNE 5.8 mph - N/A   Mostly Cloudy
5:54 AM 70.0 °F - 61.0 °F 73% 30.12 in 9.0 mi NE 3.5 mph - N/A   Scattered Clouds
6:54 AM 69.1 °F - 61.0 °F 75% 30.13 in 7.0 mi North 4.6 mph - N/A   Overcast
7:54 AM 71.1 °F - 61.0 °F 70% 30.13 in 8.0 mi Calm Calm - N/A   Overcast
8:54 AM 72.0 °F - 61.0 °F 68% 30.14 in 8.0 mi NNE 5.8 mph - N/A   Mostly Cloudy
9:54 AM 75.0 °F - 62.1 °F 64% 30.13 in 8.0 mi NNE 4.6 mph - N/A   Scattered Clouds
10:54 AM 80.1 °F 81.1 °F 61.0 °F 52% 30.13 in 8.0 mi NE 9.2 mph - N/A   Clear
11:54 AM 84.0 °F 84.4 °F 61.0 °F 46% 30.13 in 8.0 mi ENE 9.2 mph 17.3 mph N/A   Partly Cloudy
12:54 PM 86.0 °F 85.4 °F 59.0 °F 40% 30.12 in 10.0 mi NE 11.5 mph 21.9 mph N/A   Scattered Clouds
1:54 PM 86.0 °F 86.1 °F 61.0 °F 43% 30.11 in 10.0 mi ENE 9.2 mph - N/A   Mostly Cloudy
2:54 PM 87.1 °F 87.0 °F 61.0 °F 41% 30.09 in 10.0 mi ENE 12.7 mph 19.6 mph N/A   Scattered Clouds
3:54 PM 89.1 °F 88.8 °F 60.1 °F 38% 30.09 in 10.0 mi NE 11.5 mph 20.7 mph N/A   Partly Cloudy
4:54 PM 88.0 °F 87.6 °F 60.1 °F 39% 30.07 in 10.0 mi NE 13.8 mph - N/A   Partly Cloudy
5:54 PM 88.0 °F 87.9 °F 61.0 °F 40% 30.06 in 10.0 mi NNE 11.5 mph - N/A   Clear
6:54 PM 87.1 °F 87.0 °F 61.0 °F 41% 30.05 in 10.0 mi NE 10.4 mph - N/A   Clear
7:54 PM 84.0 °F 84.5 °F 62.1 °F 47% 30.05 in 10.0 mi NNE 9.2 mph - N/A   Clear
8:54 PM 78.1 °F - 64.0 °F 62% 30.06 in 9.0 mi NNE 6.9 mph - N/A   Clear
9:54 PM 75.0 °F - 63.0 °F 66% 30.08 in 10.0 mi Calm Calm - N/A   Clear
10:54 PM 73.0 °F - 64.0 °F 73% 30.11 in 10.0 mi NE 5.8 mph - N/A   Clear
11:54 PM 73.9 °F - 64.9 °F 73% 30.11 in 10.0 mi North 4.6 mph - N/A   Clear